Time,TemperatureF,DewpointF,PressureIn,WindDirection,WindDirectionDegrees,WindSpeedMPH,WindSpeedGustMPH,Humidity,HourlyPrecipIn,Conditions,Clouds,dailyrainin,SoftwareType,DateUTC
2013-01-17 00:00:00,48.7,32.8,30.10,SE,127,2.0,5.0,54,0.00,,---,0.00,VWS V14.00,2013-01-17 08:00:00,
2013-01-17 00:01:00,48.9,34.3,30.10,ESE,116,1.0,8.0,57,0.00,,---,0.00,VWS V14.00,2013-01-17 08:01:00,
2013-01-17 00:06:00,48.5,34.0,30.10,East,91,3.0,8.0,57,0.00,,,0.00,weatherlink.com 1.10,2013-01-17 08:06:00,
2013-01-17 00:24:00,47.0,34.0,30.10,East,101,0.0,4.0,62,0.00,,,0.00,weatherlink.com 1.10,2013-01-17 08:24:00,
2013-01-17 00:30:00,49.1,30.3,30.10,ESE,115,1.0,7.0,48,0.00,,---,0.00,VWS V14.00,2013-01-17 08:30:00,
2013-01-17 00:31:00,46.0,34.1,30.10,East,80,0.0,6.0,63,0.00,,---,0.00,VWS V14.00,2013-01-17 08:31:00,
2013-01-17 00:42:00,48.0,32.0,30.10,NNE,13,0.0,3.0,55,0.00,,,0.00,weatherlink.com 1.10,2013-01-17 08:42:00,
2013-01-17 00:58:00,48.7,33.0,30.10,East,94,1.0,6.0,55,0.00,,,0.00,weatherlink.com 1.10,2013-01-17 08:58:00,
2013-01-17 01:00:00,51.4,29.7,30.10,SE,135,2.0,5.0,43,0.00,,---,0.00,VWS V14.00,2013-01-17 09:00:00,
2013-01-17 01:01:00,48.7,32.8,30.10,SE,127,2.0,5.0,54,0.00,,---,0.00,VWS V14.00,2013-01-17 09:01:00,
2013-01-17 01:16:00,47.5,32.0,30.10,ESE,111,2.0,4.0,56,0.00,,,0.00,weatherlink.com 1.10,2013-01-17 09:16:00,
2013-01-17 01:30:00,47.3,34.1,30.09,ESE,110,3.0,6.0,60,0.00,,---,0.00,VWS V14.00,2013-01-17 09:30:00,
2013-01-17 01:31:00,49.1,30.3,30.10,ESE,115,1.0,7.0,48,0.00,,---,0.00,VWS V14.00,2013-01-17 09:31:00,
2013-01-17 01:34:00,50.0,30.0,30.10,ENE,71,1.0,2.0,46,0.00,,,0.00,weatherlink.com 1.10,2013-01-17 09:34:00,
2013-01-17 01:51:00,50.0,30.0,30.10,East,96,0.0,3.0,46,0.00,,,0.00,weatherlink.com 1.10,2013-01-17 09:51:00,
2013-01-17 02:00:00,48.4,29.1,30.09,South,182,0.0,7.0,47,0.00,,---,0.00,VWS V14.00,2013-01-17 10:00:00,
2013-01-17 02:01:00,51.4,29.7,30.10,SE,135,2.0,5.0,43,0.00,,---,0.00,VWS V14.00,2013-01-17 10:01:00,
2013-01-17 02:08:00,48.4,32.0,30.10,SE,128,3.0,5.0,53,0.00,,,0.00,weatherlink.com 1.10,2013-01-17 10:08:00,
2013-01-17 02:26:00,46.5,32.0,30.10,ESE,122,3.0,6.0,57,0.00,,,0.00,weatherlink.com 1.10,2013-01-17 10:26:00,
2013-01-17 02:30:00,49.1,39.8,30.09,WSW,252,0.0,4.0,70,0.00,,---,0.00,VWS V14.00,2013-01-17 10:30:00,
2013-01-17 02:31:00,47.3,34.1,30.09,ESE,110,3.0,6.0,60,0.00,,---,0.00,VWS V14.00,2013-01-17 10:31:00,
2013-01-17 02:43:00,49.1,32.0,30.09,ESE,122,2.0,4.0,52,0.00,,,0.00,weatherlink.com 1.10,2013-01-17 10:43:00,
2013-01-17 03:00:00,48.1,29.0,30.08,SSE,152,2.0,5.0,48,0.00,,,0.00,weatherlink.com 1.10,2013-01-17 11:00:00,
2013-01-17 03:17:00,48.7,37.0,30.10,SSE,155,0.0,4.0,64,0.00,,,0.00,weatherlink.com 1.10,2013-01-17 11:17:00,
2013-01-17 03:30:00,49.8,31.4,30.09,East,82,1.0,4.0,49,0.00,,---,0.00,VWS V14.00,2013-01-17 11:30:00,
2013-01-17 03:31:00,49.1,39.8,30.09,WSW,252,0.0,4.0,70,0.00,,---,0.00,VWS V14.00,2013-01-17 11:31:00,
2013-01-17 03:35:00,48.8,41.0,30.09,WNW,299,0.0,0.0,74,0.00,,,0.00,weatherlink.com 1.10,2013-01-17 11:35:00,
2013-01-17 03:51:00,50.5,36.0,30.09,NW,320,0.0,0.0,59,0.00,,,0.00,weatherlink.com 1.10,2013-01-17 11:51:00,
2013-01-17 04:00:00,49.2,31.4,30.09,East,96,1.0,4.0,50,0.00,,---,0.00,VWS V14.00,2013-01-17 12:00:00,
2013-01-17 04:01:00,53.2,33.0,30.09,NW,320,0.0,0.0,46,0.00,,---,0.00,VWS V14.00,2013-01-17 12:01:00,
2013-01-17 04:09:00,53.3,34.0,30.09,SSE,151,4.0,4.0,48,0.00,,,0.00,weatherlink.com 1.10,2013-01-17 12:09:00,
2013-01-17 04:27:00,49.7,33.0,30.09,ESE,123,0.0,4.0,52,0.00,,,0.00,weatherlink.com 1.10,2013-01-17 12:27:00,
2013-01-17 04:30:00,50.9,26.8,30.08,SE,144,0.0,5.0,39,0.00,,---,0.00,VWS V14.00,2013-01-17 12:30:00,
2013-01-17 04:31:00,49.8,31.4,30.09,East,82,1.0,4.0,49,0.00,,---,0.00,VWS V14.00,2013-01-17 12:31:00,
2013-01-17 04:43:00,50.0,29.0,30.09,SE,128,0.0,0.0,45,0.00,,,0.00,weatherlink.com 1.10,2013-01-17 12:43:00,
2013-01-17 05:00:00,52.2,26.1,30.09,East,79,1.0,4.0,36,0.00,,---,0.00,VWS V14.00,2013-01-17 13:00:00,
2013-01-17 05:01:00,49.3,32.0,30.09,East,96,1.0,4.0,51,0.00,,,0.00,weatherlink.com 1.10,2013-01-17 13:01:00,
2013-01-17 05:18:00,49.1,28.0,30.08,East,94,1.0,3.0,45,0.00,,,0.00,weatherlink.com 1.10,2013-01-17 13:18:00,
2013-01-17 05:30:00,53.0,25.4,30.10,SE,135,1.0,4.0,34,0.00,,---,0.00,VWS V14.00,2013-01-17 13:30:00,
2013-01-17 05:31:00,50.9,26.8,30.08,SE,144,0.0,5.0,39,0.00,,---,0.00,VWS V14.00,2013-01-17 13:31:00,
2013-01-17 05:36:00,51.7,25.0,30.08,SE,142,1.0,3.0,36,0.00,,,0.00,weatherlink.com 1.10,2013-01-17 13:36:00,
2013-01-17 05:52:00,50.9,26.0,30.08,SE,128,2.0,4.0,38,0.00,,,0.00,weatherlink.com 1.10,2013-01-17 13:52:00,
2013-01-17 06:00:00,54.4,25.9,30.10,ENE,73,0.0,4.0,33,0.00,,---,0.00,VWS V14.00,2013-01-17 14:00:00,
2013-01-17 06:01:00,52.2,26.1,30.09,East,79,1.0,4.0,36,0.00,,---,0.00,VWS V14.00,2013-01-17 14:01:00,
2013-01-17 06:10:00,52.4,26.0,30.09,ESE,111,2.0,3.0,36,0.00,,,0.00,weatherlink.com 1.10,2013-01-17 14:10:00,
2013-01-17 06:27:00,53.0,25.0,30.09,East,92,0.0,3.0,34,0.00,,,0.00,weatherlink.com 1.10,2013-01-17 14:27:00,
2013-01-17 06:30:00,52.1,28.5,30.11,ESE,102,2.0,3.0,40,0.00,,---,0.00,VWS V14.00,2013-01-17 14:30:00,
2013-01-17 06:31:00,53.0,25.4,30.10,SE,135,1.0,4.0,34,0.00,,---,0.00,VWS V14.00,2013-01-17 14:31:00,
2013-01-17 06:44:00,53.2,25.0,30.10,ESE,121,0.0,4.0,34,0.00,,,0.00,weatherlink.com 1.10,2013-01-17 14:44:00,
2013-01-17 07:00:00,53.2,28.9,30.13,ESE,111,4.0,6.0,39,0.00,,---,0.00,VWS V14.00,2013-01-17 15:00:00,
2013-01-17 07:01:00,54.4,25.9,30.10,ENE,73,0.0,4.0,33,0.00,,---,0.00,VWS V14.00,2013-01-17 15:01:00,
2013-01-17 07:19:00,56.5,27.0,30.10,NW,314,3.0,3.0,32,0.00,,,0.00,weatherlink.com 1.10,2013-01-17 15:19:00,
2013-01-17 07:30:00,59.4,30.3,30.13,ESE,119,0.0,7.0,33,0.00,,---,0.00,VWS V14.00,2013-01-17 15:30:00,
2013-01-17 07:31:00,52.1,28.5,30.11,ESE,102,2.0,3.0,40,0.00,,---,0.00,VWS V14.00,2013-01-17 15:31:00,
2013-01-17 07:53:00,52.3,30.0,30.12,SE,126,3.0,6.0,43,0.00,,,0.00,weatherlink.com 1.10,2013-01-17 15:53:00,
2013-01-17 08:00:00,61.9,34.0,30.14,WNW,298,3.0,7.0,35,0.00,,---,0.00,VWS V14.00,2013-01-17 16:00:00,
2013-01-17 08:01:00,53.2,28.9,30.13,ESE,111,4.0,6.0,39,0.00,,---,0.00,VWS V14.00,2013-01-17 16:01:00,
2013-01-17 08:11:00,54.3,30.0,30.13,East,90,1.0,3.0,39,0.00,,,0.00,weatherlink.com 1.10,2013-01-17 16:11:00,
2013-01-17 08:30:00,63.6,31.6,30.14,WNW,294,3.0,4.0,30,0.00,,---,0.00,VWS V14.00,2013-01-17 16:30:00,
2013-01-17 08:31:00,59.4,30.3,30.13,ESE,119,0.0,7.0,33,0.00,,---,0.00,VWS V14.00,2013-01-17 16:31:00,
2013-01-17 08:45:00,60.2,33.0,30.13,SSE,159,0.0,4.0,36,0.00,,,0.00,weatherlink.com 1.10,2013-01-17 16:45:00,
2013-01-17 09:00:00,64.4,31.5,30.14,WNW,288,1.0,6.0,29,0.00,,---,0.00,VWS V14.00,2013-01-17 17:00:00,
2013-01-17 09:01:00,61.9,34.0,30.14,WNW,298,3.0,7.0,35,0.00,,---,0.00,VWS V14.00,2013-01-17 17:01:00,
2013-01-17 09:20:00,62.3,30.0,30.14,West,265,2.0,3.0,30,0.00,,,0.00,weatherlink.com 1.10,2013-01-17 17:20:00,
2013-01-17 09:30:00,66.0,30.2,30.13,WNW,282,2.0,7.0,26,0.00,,---,0.00,VWS V14.00,2013-01-17 17:30:00,
2013-01-17 09:31:00,63.6,31.6,30.14,WNW,294,3.0,4.0,30,0.00,,---,0.00,VWS V14.00,2013-01-17 17:31:00,
2013-01-17 09:37:00,63.9,32.0,30.14,West,261,3.0,5.0,30,0.00,,,0.00,weatherlink.com 1.10,2013-01-17 17:37:00,
2013-01-17 09:54:00,64.4,31.0,30.14,WNW,285,4.0,5.0,29,0.00,,,0.00,weatherlink.com 1.10,2013-01-17 17:54:00,
2013-01-17 10:00:00,67.0,25.8,30.11,WNW,284,5.0,8.0,21,0.00,,---,0.00,VWS V14.00,2013-01-17 18:00:00,
2013-01-17 10:01:00,64.4,31.5,30.14,WNW,288,1.0,6.0,29,0.00,,---,0.00,VWS V14.00,2013-01-17 18:01:00,
2013-01-17 10:11:00,64.5,31.0,30.14,WNW,296,2.0,8.0,28,0.00,,,0.00,weatherlink.com 1.10,2013-01-17 18:11:00,
2013-01-17 10:29:00,65.8,30.0,30.14,WSW,250,3.0,6.0,26,0.00,,,0.00,weatherlink.com 1.10,2013-01-17 18:29:00,
2013-01-17 10:30:00,67.7,27.5,30.09,WNW,284,6.0,10.0,22,0.00,,---,0.00,VWS V14.00,2013-01-17 18:30:00,
2013-01-17 10:47:00,66.3,27.0,30.12,NW,305,6.0,8.0,23,0.00,,,0.00,weatherlink.com 1.10,2013-01-17 18:47:00,
2013-01-17 11:00:00,67.9,28.8,30.08,WSW,249,5.0,12.0,23,0.00,,---,0.00,VWS V14.00,2013-01-17 19:00:00,
2013-01-17 11:01:00,67.0,25.8,30.11,WNW,284,5.0,8.0,21,0.00,,---,0.00,VWS V14.00,2013-01-17 19:01:00,
2013-01-17 11:21:00,67.5,28.0,30.11,WNW,284,8.0,10.0,23,0.00,,,0.00,weatherlink.com 1.10,2013-01-17 19:21:00,
2013-01-17 11:30:00,67.5,27.4,30.06,West,273,8.0,13.0,22,0.00,,---,0.00,VWS V14.00,2013-01-17 19:30:00,
2013-01-17 11:31:00,67.7,27.5,30.09,WNW,284,6.0,10.0,22,0.00,,---,0.00,VWS V14.00,2013-01-17 19:31:00,
2013-01-17 11:38:00,68.0,28.0,30.09,West,279,8.0,9.0,22,0.00,,,0.00,weatherlink.com 1.10,2013-01-17 19:38:00,
2013-01-17 11:55:00,68.1,28.0,30.09,West,265,4.0,11.0,22,0.00,,,0.00,weatherlink.com 1.10,2013-01-17 19:55:00,
2013-01-17 12:00:00,68.6,27.1,30.05,West,263,4.0,12.0,21,0.00,,---,0.00,VWS V14.00,2013-01-17 20:00:00,
2013-01-17 12:01:00,67.9,28.8,30.08,WSW,249,5.0,12.0,23,0.00,,---,0.00,VWS V14.00,2013-01-17 20:01:00,
2013-01-17 12:13:00,67.1,28.0,30.08,SW,225,3.0,14.0,23,0.00,,,0.00,weatherlink.com 1.10,2013-01-17 20:13:00,
2013-01-17 12:30:00,66.7,28.8,30.04,WNW,288,5.0,14.0,24,0.00,,---,0.00,VWS V14.00,2013-01-17 20:30:00,
2013-01-17 12:31:00,67.5,27.0,30.06,WSW,256,8.0,13.0,22,0.00,,,0.00,weatherlink.com 1.10,2013-01-17 20:31:00,
2013-01-17 12:47:00,68.1,27.0,30.05,West,273,4.0,12.0,21,0.00,,,0.00,weatherlink.com 1.10,2013-01-17 20:47:00,
2013-01-17 13:00:00,67.3,23.7,30.03,SW,231,7.0,14.0,19,0.00,,---,0.00,VWS V14.00,2013-01-17 21:00:00,
2013-01-17 13:01:00,68.6,27.1,30.05,West,263,4.0,12.0,21,0.00,,---,0.00,VWS V14.00,2013-01-17 21:01:00,
2013-01-17 13:23:00,67.2,27.0,30.04,West,272,7.0,13.0,22,0.00,,,0.00,weatherlink.com 1.10,2013-01-17 21:23:00,
2013-01-17 13:30:00,68.1,21.7,30.04,West,270,5.0,15.0,17,0.00,,---,0.00,VWS V14.00,2013-01-17 21:30:00,
2013-01-17 13:31:00,66.7,28.8,30.04,WNW,288,5.0,14.0,24,0.00,,---,0.00,VWS V14.00,2013-01-17 21:31:00,
2013-01-17 13:40:00,66.6,30.0,30.04,West,271,11.0,14.0,25,0.00,,,0.00,weatherlink.com 1.10,2013-01-17 21:40:00,
2013-01-17 13:57:00,67.1,25.0,30.04,SW,231,2.0,14.0,20,0.00,,,0.00,weatherlink.com 1.10,2013-01-17 21:57:00,
2013-01-17 14:00:00,69.4,21.3,30.04,WSW,247,6.0,13.0,16,0.00,,---,0.00,VWS V14.00,2013-01-17 22:00:00,
2013-01-17 14:01:00,67.3,23.7,30.03,SW,231,7.0,14.0,19,0.00,,---,0.00,VWS V14.00,2013-01-17 22:01:00,
2013-01-17 14:15:00,67.8,23.0,30.03,SW,217,5.0,15.0,18,0.00,,,0.00,weatherlink.com 1.10,2013-01-17 22:15:00,
2013-01-17 14:30:00,69.2,21.1,30.03,WSW,246,6.0,12.0,16,0.00,,---,0.00,VWS V14.00,2013-01-17 22:30:00,
2013-01-17 14:31:00,68.1,21.7,30.04,West,270,5.0,15.0,17,0.00,,---,0.00,VWS V14.00,2013-01-17 22:31:00,
2013-01-17 14:32:00,68.2,22.0,30.04,WNW,290,5.0,14.0,17,0.00,,,0.00,weatherlink.com 1.10,2013-01-17 22:32:00,
2013-01-17 14:49:00,69.1,21.0,30.04,West,280,5.0,11.0,16,0.00,,,0.00,weatherlink.com 1.10,2013-01-17 22:49:00,
2013-01-17 15:00:00,69.6,24.2,30.05,WNW,288,4.0,10.0,18,0.00,,---,0.00,VWS V14.00,2013-01-17 23:00:00,
2013-01-17 15:01:00,69.4,21.3,30.04,WSW,247,6.0,13.0,16,0.00,,---,0.00,VWS V14.00,2013-01-17 23:01:00,
2013-01-17 15:07:00,69.4,21.0,30.04,West,260,7.0,12.0,16,0.00,,,0.00,weatherlink.com 1.10,2013-01-17 23:07:00,
2013-01-17 15:23:00,69.5,21.0,30.03,West,263,9.0,11.0,16,0.00,,,0.00,weatherlink.com 1.10,2013-01-17 23:23:00,
2013-01-17 15:30:00,69.3,25.3,30.05,West,272,3.0,8.0,19,0.00,,---,0.00,VWS V14.00,2013-01-17 23:30:00,
2013-01-17 15:31:00,69.2,21.1,30.03,WSW,246,6.0,12.0,16,0.00,,---,0.00,VWS V14.00,2013-01-17 23:31:00,
2013-01-17 15:41:00,69.7,21.0,30.04,West,265,7.0,9.0,16,0.00,,,0.00,weatherlink.com 1.10,2013-01-17 23:41:00,
2013-01-17 15:58:00,69.7,23.0,30.04,WSW,254,7.0,8.0,17,0.00,,,0.00,weatherlink.com 1.10,2013-01-17 23:58:00,
2013-01-17 16:00:00,66.0,27.2,30.06,West,271,4.0,9.0,23,0.00,,---,0.00,VWS V14.00,2013-01-18 00:00:00,
2013-01-17 16:15:00,69.5,24.0,30.05,West,276,3.0,8.0,18,0.00,,,0.00,weatherlink.com 1.10,2013-01-18 00:15:00,
2013-01-17 16:30:00,64.8,29.1,30.07,WNW,290,3.0,8.0,26,0.00,,---,0.00,VWS V14.00,2013-01-18 00:30:00,
2013-01-17 16:31:00,69.3,25.3,30.05,West,272,3.0,8.0,19,0.00,,---,0.00,VWS V14.00,2013-01-18 00:31:00,
2013-01-17 16:33:00,69.1,25.0,30.05,West,259,6.0,7.0,19,0.00,,,0.00,weatherlink.com 1.10,2013-01-18 00:33:00,
2013-01-17 16:49:00,67.4,27.0,30.06,West,271,6.0,8.0,22,0.00,,,0.00,weatherlink.com 1.10,2013-01-18 00:49:00,
2013-01-17 17:00:00,62.0,32.6,30.08,South,181,3.0,7.0,33,0.00,,---,0.00,VWS V14.00,2013-01-18 01:00:00,
2013-01-17 17:01:00,66.0,27.2,30.06,West,271,4.0,9.0,23,0.00,,---,0.00,VWS V14.00,2013-01-18 01:01:00,
2013-01-17 17:07:00,65.8,27.0,30.06,West,266,5.0,7.0,23,0.00,,,0.00,weatherlink.com 1.10,2013-01-18 01:07:00,
2013-01-17 17:25:00,65.3,27.0,30.06,WSW,252,5.0,7.0,24,0.00,,,0.00,weatherlink.com 1.10,2013-01-18 01:25:00,
2013-01-17 17:30:00,58.7,41.1,30.08,SSE,154,0.0,3.0,52,0.00,,---,0.00,VWS V14.00,2013-01-18 01:30:00,
2013-01-17 17:31:00,64.8,29.1,30.07,WNW,290,3.0,8.0,26,0.00,,---,0.00,VWS V14.00,2013-01-18 01:31:00,
2013-01-17 17:42:00,63.5,29.0,30.07,SE,146,1.0,8.0,27,0.00,,,0.00,weatherlink.com 1.10,2013-01-18 01:42:00,
2013-01-17 17:59:00,62.2,32.0,30.08,South,171,1.0,5.0,32,0.00,,,0.00,weatherlink.com 1.10,2013-01-18 01:59:00,
2013-01-17 18:00:00,58.7,36.9,30.09,ESE,109,2.0,3.0,44,0.00,,---,0.00,VWS V14.00,2013-01-18 02:00:00,
2013-01-17 18:01:00,62.0,32.6,30.08,South,181,3.0,7.0,33,0.00,,---,0.00,VWS V14.00,2013-01-18 02:01:00,
2013-01-17 18:16:00,60.1,39.0,30.08,SE,130,0.0,2.0,45,0.00,,,0.00,weatherlink.com 1.10,2013-01-18 02:16:00,
2013-01-17 18:30:00,59.7,37.8,30.09,ESE,112,1.0,4.0,44,0.00,,---,0.00,VWS V14.00,2013-01-18 02:30:00,
2013-01-17 18:31:00,58.7,41.1,30.08,SSE,154,0.0,3.0,52,0.00,,---,0.00,VWS V14.00,2013-01-18 02:31:00,
2013-01-17 18:33:00,58.5,40.0,30.09,SSE,154,0.0,1.0,51,0.00,,,0.00,weatherlink.com 1.10,2013-01-18 02:33:00,
2013-01-17 18:51:00,58.0,39.0,30.09,SSE,153,0.0,0.0,50,0.00,,,0.00,weatherlink.com 1.10,2013-01-18 02:51:00,
2013-01-17 19:00:00,59.4,33.1,30.09,ESE,111,0.0,3.0,37,0.00,,---,0.00,VWS V14.00,2013-01-18 03:00:00,
2013-01-17 19:01:00,58.7,36.9,30.09,ESE,109,2.0,3.0,44,0.00,,---,0.00,VWS V14.00,2013-01-18 03:01:00,
2013-01-17 19:07:00,59.5,37.0,30.09,ESE,115,3.0,4.0,44,0.00,,,0.00,weatherlink.com 1.10,2013-01-18 03:07:00,
2013-01-17 19:25:00,59.9,37.0,30.09,ESE,107,1.0,4.0,42,0.00,,,0.00,weatherlink.com 1.10,2013-01-18 03:25:00,
2013-01-17 19:30:00,60.0,28.5,30.09,ESE,111,0.0,0.0,30,0.00,,---,0.00,VWS V14.00,2013-01-18 03:30:00,
2013-01-17 19:31:00,59.7,37.8,30.09,ESE,112,1.0,4.0,44,0.00,,---,0.00,VWS V14.00,2013-01-18 03:31:00,
2013-01-17 19:43:00,59.6,37.0,30.09,ESE,111,0.0,2.0,43,0.00,,,0.00,weatherlink.com 1.10,2013-01-18 03:43:00,
2013-01-17 19:59:00,59.3,34.0,30.09,ESE,111,0.0,2.0,39,0.00,,,0.00,weatherlink.com 1.10,2013-01-18 03:59:00,
2013-01-17 20:00:00,61.3,28.8,30.09,SE,146,0.0,2.0,29,0.00,,---,0.00,VWS V14.00,2013-01-18 04:00:00,
2013-01-17 20:16:00,58.9,32.0,30.09,ESE,111,0.0,0.0,37,0.00,,,0.00,weatherlink.com 1.10,2013-01-18 04:16:00,
2013-01-17 20:30:00,60.8,25.7,30.09,SSE,155,2.0,3.0,26,0.00,,---,0.00,VWS V14.00,2013-01-18 04:30:00,
2013-01-17 20:31:00,60.0,28.5,30.09,ESE,111,0.0,0.0,30,0.00,,---,0.00,VWS V14.00,2013-01-18 04:31:00,
2013-01-17 20:34:00,60.7,28.0,30.09,ESE,114,0.0,0.0,29,0.00,,,0.00,weatherlink.com 1.10,2013-01-18 04:34:00,
2013-01-17 20:50:00,61.3,28.0,30.09,SE,146,0.0,2.0,28,0.00,,,0.00,weatherlink.com 1.10,2013-01-18 04:50:00,
2013-01-17 21:00:00,57.3,28.5,30.09,SSE,152,0.0,2.0,33,0.00,,---,0.00,VWS V14.00,2013-01-18 05:00:00,
2013-01-17 21:01:00,61.3,28.8,30.09,SE,146,0.0,2.0,29,0.00,,---,0.00,VWS V14.00,2013-01-18 05:01:00,
2013-01-17 21:08:00,61.1,26.0,30.09,SE,146,0.0,0.0,26,0.00,,,0.00,weatherlink.com 1.10,2013-01-18 05:08:00,
2013-01-17 21:25:00,61.0,26.0,30.09,SE,146,0.0,0.0,26,0.00,,,0.00,weatherlink.com 1.10,2013-01-18 05:25:00,
2013-01-17 21:30:00,59.0,26.0,30.09,SSE,153,0.0,2.0,28,0.00,,---,0.00,VWS V14.00,2013-01-18 05:30:00,
2013-01-17 21:31:00,60.8,25.7,30.09,SSE,155,2.0,3.0,26,0.00,,---,0.00,VWS V14.00,2013-01-18 05:31:00,
2013-01-17 21:42:00,59.0,27.0,30.09,SE,138,0.0,2.0,29,0.00,,,0.00,weatherlink.com 1.10,2013-01-18 05:42:00,
2013-01-17 21:59:00,57.3,28.0,30.09,SSE,152,0.0,0.0,33,0.00,,,0.00,weatherlink.com 1.10,2013-01-18 05:59:00,
2013-01-17 22:00:00,58.3,25.4,30.09,WSW,247,1.0,2.0,28,0.00,,---,0.00,VWS V14.00,2013-01-18 06:00:00,
2013-01-17 22:17:00,59.5,24.0,30.09,SSE,152,0.0,0.0,26,0.00,,,0.00,weatherlink.com 1.10,2013-01-18 06:17:00,
2013-01-17 22:30:00,58.0,24.2,30.09,NW,319,0.0,2.0,27,0.00,,---,0.00,VWS V14.00,2013-01-18 06:30:00,
2013-01-17 22:31:00,59.0,26.0,30.09,SSE,153,0.0,2.0,28,0.00,,---,0.00,VWS V14.00,2013-01-18 06:31:00,
2013-01-17 22:35:00,58.5,24.0,30.09,SSE,153,0.0,0.0,27,0.00,,,0.00,weatherlink.com 1.10,2013-01-18 06:35:00,
2013-01-17 22:51:00,56.9,24.0,30.09,SSE,163,0.0,0.0,28,0.00,,,0.00,weatherlink.com 1.10,2013-01-18 06:51:00,
2013-01-17 23:00:00,56.5,22.0,30.09,ESE,107,0.0,3.0,26,0.00,,---,0.00,VWS V14.00,2013-01-18 07:00:00,
2013-01-17 23:01:00,58.3,25.4,30.09,WSW,247,1.0,2.0,28,0.00,,---,0.00,VWS V14.00,2013-01-18 07:01:00,
2013-01-17 23:09:00,57.8,23.0,30.09,WNW,297,2.0,2.0,26,0.00,,,0.00,weatherlink.com 1.10,2013-01-18 07:09:00,
2013-01-17 23:26:00,58.5,22.0,30.09,NW,319,0.0,0.0,24,0.00,,,0.00,weatherlink.com 1.10,2013-01-18 07:26:00,
2013-01-17 23:30:00,57.5,20.0,30.09,NE,40,0.0,2.0,23,0.00,,---,0.00,VWS V14.00,2013-01-18 07:30:00,
2013-01-17 23:31:00,58.0,24.2,30.09,NW,319,0.0,2.0,27,0.00,,---,0.00,VWS V14.00,2013-01-18 07:31:00,
2013-01-17 23:42:00,58.3,25.0,30.09,SE,126,2.0,3.0,28,0.00,,,0.00,weatherlink.com 1.10,2013-01-18 07:42:00,